Date String (YYYY-MM-DD hh:mm:ss) UTC,Instrument flags,Ambient pressure (hPa),Sample flow (lpm),Bypass flow (lpm),Sample temperature (°C),Ambient temperature (°C),ASC tube jacket temperature (°C),LED temperature (°C),Box temperature (°C),Sample RH (%),Span deviation,Mass concentration (μg/m³),Mass concentration (μg/m³),Mass concentration (μg/m³)
DateTimeUTC,F1_M11,P_M11,Q1_M11,Q2_M11,T1_M11,T2_M11,T3_M11,T4_M11,T5_M11,U1_M11,ZSPAN_M11,X0_M11,X2_M11,X1_M11
2021-11-12 10:00:00,,0830.6,4.99,0.00,21.5,20.8,00.0,30.7,23.2,12.4,0000.0,0008.47,0002.70,0001.78
2021-11-12 10:01:00,,0830.6,5.01,0.00,21.5,20.8,00.0,30.7,23.3,12.5,0000.0,0008.13,0002.63,0001.79
2021-11-12 10:02:00,,0830.6,4.99,0.00,21.5,20.9,00.0,30.7,23.3,12.4,0000.0,0007.28,0002.62,0001.79
2021-11-12 10:03:00,,0830.6,5.00,0.00,21.6,21.6,00.0,30.7,23.5,12.4,0000.0,0006.34,0002.59,0001.76
2021-11-12 10:04:00,,0830.6,5.01,0.00,21.8,22.4,00.0,30.8,23.7,12.3,0000.0,0006.30,0002.60,0001.75
2021-11-12 10:05:00,,0830.6,5.00,0.00,21.9,22.6,00.0,30.8,23.9,12.3,0000.0,0007.40,0002.63,0001.76
2021-11-12 10:06:00,,0830.5,4.99,0.00,21.9,22.3,00.0,30.8,23.9,12.2,0000.0,0007.97,0002.69,0001.75
2021-11-12 10:07:00,,0830.6,5.00,0.00,21.9,22.1,00.0,30.8,23.8,12.2,0000.0,0008.08,0002.74,0001.76
2021-11-12 10:08:00,,0830.6,5.01,0.00,21.9,21.9,00.0,30.9,23.7,12.2,0000.0,0008.36,0002.74,0001.75
2021-11-12 10:09:00,,0830.6,4.99,0.00,21.9,21.8,00.0,30.9,23.7,12.3,0000.0,0008.45,0002.75,0001.75
2021-11-12 10:10:00,,0830.5,5.00,0.00,21.9,21.6,00.0,30.9,23.7,12.3,0000.0,0008.30,0002.79,0001.75
2021-11-12 10:11:00,,0830.6,5.00,0.00,21.9,21.5,00.0,30.9,23.7,12.3,0000.0,0008.31,0002.82,0001.74
2021-11-12 10:12:00,,0830.6,5.01,0.00,21.9,21.4,00.0,30.9,23.7,12.4,0000.0,0009.35,0002.85,0001.74
2021-11-12 10:13:00,,0830.6,4.99,0.00,21.9,21.4,00.0,30.9,23.6,12.4,0000.0,0009.43,0002.84,0001.74
2021-11-12 10:14:00,,0830.6,5.00,0.00,21.8,21.3,00.0,30.9,23.6,12.4,0000.0,0010.26,0002.81,0001.75
2021-11-12 10:15:00,,0830.5,5.00,0.00,21.8,21.2,00.0,30.9,23.5,12.4,0000.0,0010.67,0002.78,0001.75
2021-11-12 10:16:00,,0830.4,5.00,0.00,21.8,21.1,00.0,30.9,23.5,12.5,0000.0,0009.98,0002.74,0001.76
2021-11-12 10:17:00,,0830.5,5.00,0.00,21.8,21.1,00.0,30.9,23.5,12.5,0000.0,0009.30,0002.68,0001.77
2021-11-12 10:18:00,,0830.5,5.01,0.00,21.8,21.0,00.0,30.9,23.4,12.5,0000.0,0009.08,0002.63,0001.76
2021-11-12 10:19:00,,0830.5,4.99,0.00,21.7,21.0,00.0,30.8,23.4,12.5,0000.0,0008.76,0002.66,0001.77
2021-11-12 10:20:00,,0830.5,5.00,0.00,21.7,21.0,00.0,30.8,23.4,12.5,0000.0,0008.81,0002.67,0001.79
2021-11-12 10:21:00,,0830.5,5.01,0.00,21.7,20.9,00.0,30.8,23.3,12.6,0000.0,0009.06,0002.63,0001.79
2021-11-12 10:22:00,,0830.4,4.99,0.00,21.6,20.9,00.0,30.8,23.3,12.6,0000.0,0009.06,0002.68,0001.81
2021-11-12 10:23:00,,0830.4,5.01,0.00,21.6,20.8,00.0,30.8,23.3,12.6,0000.0,0008.15,0002.71,0001.82
2021-11-12 10:24:00,,0830.5,4.99,0.00,21.6,20.9,00.0,30.8,23.3,12.6,0000.0,0008.13,0002.75,0001.83
2021-11-12 10:25:00,,0830.4,5.00,0.00,21.6,20.9,00.0,30.8,23.3,12.6,0000.0,0007.30,0002.84,0001.84
2021-11-12 10:26:00,,0830.5,5.00,0.00,21.6,20.9,00.0,30.8,23.3,12.6,0000.0,0006.73,0002.88,0001.85
2021-11-12 10:27:00,,0830.4,5.01,0.00,21.6,20.9,00.0,30.8,23.3,12.6,0000.0,0006.81,0002.91,0001.85
2021-11-12 10:28:00,,0830.4,5.00,0.00,21.6,20.9,00.0,30.7,23.3,12.6,0000.0,0007.34,0002.95,0001.85
2021-11-12 10:29:00,,0830.4,5.00,0.00,21.6,20.9,00.0,30.7,23.4,12.6,0000.0,0007.75,0002.93,0001.86
2021-11-12 10:30:00,,0830.4,5.00,0.00,21.6,20.9,00.0,30.7,23.4,12.7,0000.0,0008.00,0002.95,0001.86
2021-11-12 10:31:00,,0830.4,5.00,0.00,21.6,20.9,00.0,30.7,23.3,12.7,0000.0,0007.91,0002.92,0001.85
2021-11-12 10:32:00,,0830.4,4.99,0.00,21.6,20.9,00.0,30.7,23.3,12.7,0000.0,0007.91,0003.02,0001.86
2021-11-12 10:33:00,,0830.4,5.01,0.00,21.6,20.8,00.0,30.7,23.3,12.7,0000.0,0007.91,0003.02,0001.85
2021-11-12 10:34:00,,0830.4,4.99,0.00,21.6,20.9,00.0,30.7,23.3,12.7,0000.0,0007.97,0002.96,0001.83
2021-11-12 10:35:00,,0830.5,5.01,0.00,21.6,21.5,00.0,30.7,23.5,12.7,0000.0,0008.76,0002.97,0001.83
2021-11-12 10:36:00,,0830.4,5.00,0.00,21.8,22.3,00.0,30.8,23.7,12.6,0000.0,0008.67,0002.89,0001.83
2021-11-12 10:37:00,,0830.4,4.99,0.00,21.9,22.6,00.0,30.8,23.9,12.5,0000.0,0008.74,0002.83,0001.83
2021-11-12 10:38:00,,0830.5,4.99,0.00,21.9,22.4,00.0,30.8,23.9,12.5,0000.0,0008.80,0002.79,0001.82
2021-11-12 10:39:00,,0830.5,5.02,0.00,22.0,22.2,00.0,30.8,23.9,12.5,0000.0,0009.39,0002.81,0001.83
2021-11-12 10:40:00,,0830.6,5.00,0.00,22.0,22.0,00.0,30.9,23.9,12.5,0000.0,0009.04,0002.85,0001.83
2021-11-12 10:41:00,,0830.6,5.00,0.00,22.0,21.9,00.0,30.9,23.9,12.5,0000.0,0008.76,0002.78,0001.82
2021-11-12 10:42:00,,0830.5,4.99,0.00,22.0,21.8,00.0,30.9,23.8,12.5,0000.0,0009.00,0002.80,0001.82
2021-11-12 10:43:00,,0830.4,5.00,0.00,22.0,21.7,00.0,30.9,23.8,12.5,0000.0,0009.10,0002.69,0001.81
2021-11-12 10:44:00,,0830.4,5.01,0.00,22.0,21.7,00.0,30.9,23.8,12.5,0000.0,0008.83,0002.68,0001.82
2021-11-12 10:45:00,,0830.5,5.00,0.00,22.0,21.6,00.0,30.9,23.8,12.5,0000.0,0008.68,0002.73,0001.85
2021-11-12 10:46:00,,0830.4,4.99,0.00,22.0,21.5,00.0,30.9,23.8,12.6,0000.0,0008.57,0002.72,0001.85
2021-11-12 10:47:00,,0830.4,5.00,0.00,22.0,21.5,00.0,31.0,23.7,12.6,0000.0,0009.35,0002.78,0001.85
2021-11-12 10:48:00,,0830.4,5.01,0.00,22.0,21.4,00.0,31.0,23.7,12.6,0000.0,0009.40,0002.86,0001.87
2021-11-12 10:49:00,,0830.4,4.99,0.00,22.0,21.4,00.0,31.0,23.8,12.6,0000.0,0009.48,0002.99,0001.89
2021-11-12 10:50:00,,0830.5,5.00,0.00,22.0,21.4,00.0,31.0,23.8,12.5,0000.0,0009.61,0002.99,0001.89
2021-11-12 10:51:00,,0830.5,5.00,0.00,22.0,21.4,00.0,31.0,23.8,12.5,0000.0,0009.80,0002.99,0001.88
2021-11-12 10:52:00,,0830.5,5.01,0.00,22.0,21.4,00.0,31.0,23.8,12.5,0000.0,0010.30,0003.03,0001.89
2021-11-12 10:53:00,,0830.4,5.00,0.00,22.0,21.4,00.0,31.0,23.8,12.5,0000.0,0010.24,0003.03,0001.90
2021-11-12 10:54:00,,0830.5,4.99,0.00,22.0,21.4,00.0,31.0,23.8,12.5,0000.0,0010.05,0003.03,0001.91
2021-11-12 10:55:00,,0830.5,5.00,0.00,22.0,21.3,00.0,31.0,23.8,12.5,0000.0,0010.00,0003.01,0001.90
2021-11-12 10:56:00,,0830.4,5.01,0.00,22.0,21.3,00.0,31.0,23.7,12.5,0000.0,0010.15,0002.99,0001.89
2021-11-12 10:57:00,,0830.4,4.99,0.00,21.9,21.3,00.0,31.0,23.7,12.5,0000.0,0009.62,0003.03,0001.90
2021-11-12 10:58:00,,0830.5,5.00,0.00,21.9,21.2,00.0,31.0,23.7,12.6,0000.0,0008.99,0003.09,0001.92
2021-11-12 10:59:00,,0830.5,4.99,0.00,21.9,21.1,00.0,31.0,23.6,12.6,0000.0,0008.91,0003.08,0001.91
